Location: Lower Kingswood
(51.2667°N, 0.2167°W)
Time: 11:49:51
(UTC+00:00)

USA 215 - Pass Details

Date: 26 September 2023
Orbit: 1098 x 1109 km, 123.0° (Epoch: 17 November)

Event Time Altitude Azimuth Distance (km) Brightness Sun altitude
Rises 03:26:06 0° 150° (SSE) 3,900 6.2 -22.8°
Reaches altitude 10° 03:28:45 10° 157° (SSE) 2,946 5.4 -22.5°
Maximum altitude 03:34:48 40° 226° (SW) 1,569 3.6 -21.6°
Enters shadow 03:35:44 38° 245° (WSW) 1,618 3.6 -21.5°
